Café des Stands
Index du forums | Index des forums | Recherche | Identification
Ring
Posté par stupid  Profil (IP enregistrée), le 03/05/09 23:05:04


Toujours pas de temps sur le ring ?


Sujet Vues Ecrit par Posté le
  Focus RS : 300 ch et plus... (topic fermé) 28070 Kobalt 10/12/08 14:18:14
  C'est le prix 1196 Drool1 10/12/08 14:24:50
  Oui, c'est le prix en France (nt) 941 Kobalt 10/12/08 14:31:29
  Pas vraiment 821 olivierrs 11/12/08 19:47:00
  pas cher 918 RickyRS1  Membre RS-Team 10/12/08 14:38:10
  Une bombe... 994 Bubule50 10/12/08 14:38:57
  Bon ben on a la Sportive de l'année 2009 1023 Loïc  Membre RS-Team 10/12/08 15:01:25
  En vert 810 Drool1 10/12/08 15:21:04
  Pas que du vert... 867 Bubule50 10/12/08 16:07:40
  La GTR... 774 Ferry 12/12/08 13:15:34
  Hum je suis pas convaincu 655 Drool1 12/12/08 13:36:08
  6500 tr/min pour la PMax 920 Baltus 10/12/08 15:56:29
  Eco taxe 823 RS Family  Membre RS-Team 10/12/08 18:52:51
  Un peu trop 815 Boooo 10/12/08 15:58:30
  Trois couleurs seulement 861 Kobalt 10/12/08 16:24:30
  Et ben ils 683 Drool1 10/12/08 16:27:31
  j'ai du mal... 777 LoïcRS2  Membre RS-Team 10/12/08 16:06:43
  c est sur 597 rudylo 10/12/08 16:15:08
  Ouai mais 667 Drool1 10/12/08 16:26:57
  Tout le monde disait la meme chose 698 Shreck [Rs2]  Membre RS-Team 11/12/08 08:56:12
  sympa! 596 spat 10/12/08 17:04:52
  Ben la megane 797 Drool1 10/12/08 17:37:52
  Ils font très fort sur le prix 655 ManRS 10/12/08 18:23:25
  belle auto 642 Julien 10/12/08 18:25:50
  Pas mal du tout 608 clio2lrs  Membre RS-Team 10/12/08 18:30:07
  sympa 607 Romain [RS2]  Membre RS-Team 10/12/08 18:33:16
  Communiqué de presse 803 RS Family  Membre RS-Team 10/12/08 18:50:18
  en bleu 783 V6RIUS-BEN 10/12/08 19:07:45
  marche pas 598 Julien 10/12/08 19:39:32
  en photos 753 cliofan 10/12/08 20:52:09
  D'autres photos en bleu 807 aldo 10/12/08 21:50:34
  pas mal 621 anthonyRS3  Membre RS-Team 10/12/08 22:19:04
  et encore d'autres 627 cliofan 11/12/08 13:23:53
  Ici ils 799 Alexkekedu71 10/12/08 23:34:57
  Ils ont vite fait le changement 710 Alexkekedu71 10/12/08 23:56:07
  hestétiquement réussie 680 Snoop30 11/12/08 11:28:56
  Esperons 642 Drool1 11/12/08 11:35:17
  Ca existe même plus la C4 180 ch 712 Kobalt 11/12/08 12:12:10
  N'importes quoi (bis)... 638 RS2ni  Membre RS-Team 11/12/08 13:14:21
  Ah ouai 591 Drool1 11/12/08 13:54:51
  Ah oué 606 Romain [RS2]  Membre RS-Team 11/12/08 14:34:11
  Comparaison... 761 etienne  Membre RS-Team 11/12/08 17:26:37
  Je ne comprends pas... 710 Obi-1  Membre RS-Team 11/12/08 17:32:11
  4rm 688 etienne  Membre RS-Team 11/12/08 17:41:08
  Completement differend 680 Drool1 11/12/08 17:32:35
  Courbes moteur 807 olivierrs 11/12/08 20:04:29
  Effectivement... 620 Obi-1  Membre RS-Team 11/12/08 20:06:51
  bouuu... 666 LoïcRS2  Membre RS-Team 11/12/08 21:13:31
  I ... 640 bloovie 12/12/08 15:48:27
  Info & Pictures 1158 howard91 12/12/08 21:59:03
  Olala j'adore en blanc 495 Alexkekedu71 12/12/08 22:35:12
  La blanche!!! 702 ManRS 12/12/08 22:50:01
  La blanche 646 howard91 12/12/08 23:26:21
  1T500 je comprends mieux 716 Loïc  Membre RS-Team 13/12/08 10:26:06
  disons qu'elle aura le potentiel 601 twixx 13/12/08 10:57:32
  Elles sont différentes 681 olivierrs 14/12/08 12:07:01
  le problème... 628 C3RS 14/12/08 14:40:24
  HUm, j'hésite... 718 xav 13/12/08 12:49:38
  Photoshop 808 Julien [Trophy] 14/12/08 20:41:00
  de paris plutot 636 m362 14/12/08 22:04:14
  200 kg de plus qu'une R26-R... 708 Pedro Lito 19/12/08 22:16:12
  et 75 ch de plus 641 Loïc  Membre RS-Team 20/12/08 14:14:44
  R26.R vs FOCUS 706 stupid 20/12/08 18:47:03
  sur le Ring 713 330ci 21/12/08 14:23:09
  Caractéristiques essieu avant 3257 julien RS1VD 25/12/08 17:29:06
  Rendez-vous le 31 mars 576 cliofan 26/03/09 19:50:50
  à mon avis le record va être battu 486 Loïc  Membre RS-Team 26/03/09 19:53:26
  L'espoir fait vivre 538 aldo 26/03/09 20:32:56
  Les paris sont ouverts 603 stupid 26/03/09 22:05:14
  l'idée 481 Romain [RS2]  Membre RS-Team 27/03/09 11:25:43
  oui mais la megane est en semi slicks 612 Loïc  Membre RS-Team 27/03/09 11:48:48
  Tant que 544 AlexV 27/03/09 12:04:59
  oui mais alors le record ne sera pas homologué 541 Loïc  Membre RS-Team 27/03/09 12:08:01
  Oui enfin 579 Kobalt 27/03/09 18:35:20
  Ils visent 8.10 chez Ford 539 Kobalt 27/03/09 18:37:06
  Frs / ring 554 stupid 31/03/09 18:34:10
  En effet... 555 RST_Taliban 31/03/09 19:49:38
  en tout cas... 579 C3RS 31/03/09 20:05:29
  photos HD sur caradisiac..... 793 Gerald la poste 19/12/08 16:48:19
  Le plus chiant 720 Drool1 19/12/08 16:52:20
  Couple 667 Kique 20/12/08 15:46:10
  bof oui 654 Glambee 20/12/08 21:12:00
  pk comparer avec la R26R? 756 maboul222 21/12/08 16:12:00
  parce que 714 330ci 21/12/08 17:59:24
  mouais 690 maboul222 21/12/08 19:20:51
  certes ce n'est pas une berline 648 330ci 22/12/08 15:59:56
  je comprends 656 maboul222 22/12/08 20:33:28
  même pas 661 Romain [RS2]  Membre RS-Team 24/12/08 20:03:01
  stockage/dispatching Europe. 751 C3RS 04/01/09 23:20:10
  Un petit avant gout........ 1021 baboonst170 18/02/09 22:51:55
  Ca promet... 697 Obi-1  Membre RS-Team 18/02/09 22:54:23
  Outch! 656 RS2ni  Membre RS-Team 18/02/09 23:41:09
  rooooo 604 blaine 19/02/09 01:13:44
  va y avoir du sport 672 jordi  Membre RS-Team 19/02/09 06:30:04
  trop du ballon 524 Cali 19/02/09 10:20:56
  J'ai choisi ma prochaine.... 685 RickyRS1  Membre RS-Team 19/02/09 10:35:44
  à mon avis tu vas avoir du mal à en trouver 649 Loïc  Membre RS-Team 19/02/09 10:40:08
  hein ???!! 603 lalie  Membre RS-Team 19/02/09 10:49:29
  on verra 587 RickyRS1  Membre RS-Team 19/02/09 12:01:53
  yep 647 Julien 19/02/09 10:43:48
  Alors on me cache des choses 614 Loïc  Membre RS-Team 19/02/09 11:08:06
  rodage aux petis oignons 621 Julien 19/02/09 11:39:26
  si tu vas 595 RickyRS1  Membre RS-Team 19/02/09 12:01:15
  pffffff faut que j'aille chez renault 570 Loïc  Membre RS-Team 19/02/09 19:58:07
  Ils vont te dire 570 lalie  Membre RS-Team 19/02/09 20:13:47
  FRS vs MRSR 842 Dillon 19/02/09 12:24:20
  Essai de la FRS au dessus de Nice ! 860 ST39 19/02/09 12:40:36
  Je pense ... 693 Dillon 19/02/09 12:48:12
  Surtout que la R a été chronométrée plusieurs fois 628 Loïc  Membre RS-Team 19/02/09 16:29:09
  Just for .... 702 Dillon 19/02/09 12:54:34
  Pourtant le nurburgring 744 Drool1 19/02/09 14:13:05
  et pourtant ... 651 Dillon 19/02/09 14:24:42
  FRS vs M3RS 733 stupid 19/02/09 15:15:20
  chacun 684 Romain [RS2]  Membre RS-Team 19/02/09 15:18:11
  Oui faut attendre 490 Drool1 19/02/09 15:48:58
  tout à fait d'accord 587 maboul222 20/02/09 10:29:57
  qques chiffres 645 stupid 20/02/09 10:57:34
  Ah oui 581 Drool1 20/02/09 11:17:54
  Test 655 Dillon 20/02/09 15:12:25
  Ne pas se fier qu'à la puissance max... 649 olivierrs 19/02/09 20:57:45
  Bof 573 ST39 19/02/09 23:42:42
  Oui 611 olive 19/02/09 23:47:16
  ... 625 olivierrs 21/02/09 20:30:05
  erreur dans la formule 553 maboul222 23/02/09 16:55:21
  tu confonds force et puissance... 584 olivierrs 24/02/09 20:23:56
  oups 467 maboul222 25/02/09 10:44:48
  De toute facon 580 Drool1 20/02/09 10:05:53
  à moins que chez 459 maboul222 20/02/09 16:12:59
  Pourquoi pas 574 olivierrs 21/02/09 20:34:17
  ouais, avec un 531 maboul222 23/02/09 16:53:30
  teaser sky motoring 792 Cedric224 19/02/09 16:55:02
  r 26 vs FRS 867 AFX 19/02/09 18:14:54
  la noir est un proto 734 Cedric224 19/02/09 18:23:50
  Pour moi la RS la plus rapide 732 KurtPanzR[RS2004] 19/02/09 22:58:20
  On y est...mais, pas de comparatif !!!?!!! 654 C3RS 22/02/09 18:18:49
  next week ! 646 ST39 22/02/09 19:45:32
  Dommage 610 RS Family  Membre RS-Team 22/02/09 19:56:09
  C'est clair 605 cliofan 22/02/09 21:14:47
  faudra 600 stephanois63  Membre RS-Team 22/02/09 21:25:12
  j'ai pas tout compris 552 maboul222 23/02/09 10:24:58
  Et la suite ... sur le même terrain ! 698 C3RS 24/02/09 16:00:03
  En fait 606 ST39 24/02/09 16:04:32
  aperçue aujourd'hui 800 S-XVI 24/02/09 20:30:54
  Ford, c'est pas des bêtes... 717 C3RS 24/02/09 23:18:31
  Normal 637 Kobalt 24/02/09 23:21:48
  ah ok... pareil pour l'A5 cabrio ! 622 S-XVI 24/02/09 23:55:52
  test jason plato 678 mondochawan 01/03/09 20:22:55
  vu une aussi 522 Jaja[RS2] 03/03/09 11:55:22
  Déjà une Focus RS au tas!!! 780 captainkuru 03/03/09 07:39:59
  hum 689 Gmac 03/03/09 08:00:21
  Vue au salon de Genève 552 cliofan 05/03/09 18:21:09
  vraiment attirante cette FRS 587 Antoine 05/03/09 18:23:19
  Tu parles... 601 captainkuru 05/03/09 18:35:22
  Rallye Sport 590 Antoine 05/03/09 18:39:12
  Merki!!! 575 captainkuru 05/03/09 18:42:58
  En photos 635 cliofan 05/03/09 19:47:49
  FRS vs R26R vs STi 851 olivierrs 05/03/09 19:08:57
  superbe reportage 661 RickyRS1  Membre RS-Team 05/03/09 19:56:46
  haïe ! 650 Snoop30 06/03/09 09:28:09
  non loin de là 580 RickyRS1  Membre RS-Team 06/03/09 12:05:22
  puis surtout 623 jordi  Membre RS-Team 06/03/09 12:08:28
  C'est pas fameux cette FRS!!! 683 captainkuru 06/03/09 08:46:07
  C'est où que tu as lu ça ? 622 olivierrs 06/03/09 17:29:22
  En même temps 606 Kobalt 06/03/09 19:24:59
  hum hum... 606 etienne  Membre RS-Team 06/03/09 19:29:23
  Oui et 552 Kobalt 06/03/09 19:37:34
  en même temps... 589 etienne  Membre RS-Team 06/03/09 19:57:47
  tu es sur la liste 397 Romain [RS2]  Membre RS-Team 13/03/09 16:15:33
  Simir ?? 601 Romain [RS2]  Membre RS-Team 06/03/09 17:55:25
  lol 581 stephanois63  Membre RS-Team 07/03/09 10:46:12
  FRS vs R26R 745 stupid 06/03/09 22:18:27
  C'est bien ce que je voulais dire 361 captainkuru 07/03/09 12:04:55
  limite du comparatif.. 593 dante 07/03/09 17:14:41
  Video 692 ST39 07/03/09 17:41:00
  Comparaison 596 rhyllo 07/03/09 20:29:24
  La nouvelle référence du segment 644 olivierrs 13/03/09 15:42:40
  ca a l'air très prometteur 579 Loïc  Membre RS-Team 13/03/09 15:52:41
  Ben pour avoir une concurente 570 Drool1 13/03/09 15:57:29
  et contre une Ae86 en descente 588 Loïc  Membre RS-Team 13/03/09 16:00:50
  avec ou sans 575 jordi  Membre RS-Team 13/03/09 16:01:56
  ce n'est qu'un détail 552 Loïc  Membre RS-Team 13/03/09 16:06:20
  Ae86 457 Romain [RS2]  Membre RS-Team 13/03/09 16:13:59
  je crois que t'as un problème avec tes yeux 544 Loïc  Membre RS-Team 13/03/09 16:17:19
  Faudrait attendre un vrai comparos ... 562 GIL [RAGNOT] 13/03/09 16:30:49
  Arf 576 Romain [RS2]  Membre RS-Team 13/03/09 16:16:09
  Ben... 587 olivierrs 13/03/09 17:42:26
  ouais en tous cas .... 584 Madpierrot[RS1] 13/03/09 16:26:10
  Tu devrais lire l'article 537 olivierrs 13/03/09 17:45:09
  Tant mieux alors !... 571 Madpierrot[RS1] 13/03/09 18:13:00
  y'a t-il une fiche technique un peu détaillée ? 574 Jérome  Membre RS-Team 13/03/09 17:10:17
  Que voudrais-tu savoir ? 555 olivierrs 13/03/09 17:47:13
  Dans EVO UK, c'est un peu différent 655 xav 13/03/09 17:29:08
  Très sympa le 648 RS Family  Membre RS-Team 13/03/09 18:03:41
  Un jour... 626 RickyRS1  Membre RS-Team 13/03/09 18:27:59
  Un jour 557 RS Family  Membre RS-Team 13/03/09 19:38:05
  regarde là 562 RickyRS1  Membre RS-Team 13/03/09 19:48:09
  Trop de demandes ? 549 olivierrs 13/03/09 19:54:56
  Oui mais regardes les R26-r 571 clio2lrs  Membre RS-Team 13/03/09 20:34:49
  C'est un travail de tous les jours 566 RS Family  Membre RS-Team 13/03/09 19:58:18
  Il a toujours pas remplis le bon de commande 575 clio2lrs  Membre RS-Team 13/03/09 20:33:46
  Hankook V12 579 RS Family  Membre RS-Team 14/03/09 00:54:55
  Oui je serais curieux de savoir 605 clio2lrs  Membre RS-Team 14/03/09 09:15:50
  une verte, une blanche au même prix ? 573 S-XVI 14/03/09 11:45:37
  Je te le souhaite 582 clio2lrs  Membre RS-Team 13/03/09 20:37:06
  Alors là.... 642 Bill 13/03/09 18:29:46
  Comparatif avec R26R dans auto-journal du 12/03 670 mondochawan 13/03/09 20:25:40
  Ring 8mn10 672 Cedric224 14/03/09 13:46:42
  @ Cedric224 647 RST_Taliban 14/03/09 16:50:16
  Nurburg... 572 stupid 14/03/09 19:37:07
  oui 573 jordi  Membre RS-Team 14/03/09 19:44:23
  excellent temps... 560 RST_Taliban 14/03/09 21:40:23
  Un 8.13 570 Greg_106xs 14/03/09 23:17:59
  hey toi!!! 473 tOO 06/04/09 17:55:24
  Les 8min10 605 Alexkekedu71 14/03/09 23:53:00
  le comparo est biaisé de toute façon 410 Cédric [RS2]  Membre RS-Team 19/03/09 13:56:26
  Pneu homologué 529 Kique 03/04/09 00:21:21
  Comment part une légende urbaine... 588 olivierrs 15/03/09 13:09:00
  Faut pas être fou ! 533 Greg_106xs 15/03/09 13:12:24
  Oui, surement 553 olivierrs 15/03/09 13:25:56
  euh ... 540 Cedric224 14/03/09 19:37:18
  RST_Taliban un pseudo 513 RS Family  Membre RS-Team 14/03/09 23:53:05
  En effet... 460 RST_Taliban 15/03/09 04:36:28
  honnêtement 650 Antoine 14/03/09 09:21:39
  Comme dit mon fillo .... 584 Madpierrot[RS1] 14/03/09 09:33:05
  Chez sub 570 nicofovo 14/03/09 10:06:35
  C'est déjà fait... 365 olivierrs 14/03/09 11:38:55
  C'est deja le cas en rallye 488 tOO 06/04/09 17:59:10
  La concurrence a du bon 633 nicofovo 14/03/09 10:08:00
  ptite video 671 jordi  Membre RS-Team 14/03/09 10:50:48
  sympa les journaleux ! 639 S-XVI 14/03/09 11:51:01
  et la ligne blanche 592 Antoine 15/03/09 10:47:57
  surtout 550 C3RS 15/03/09 13:15:06
  Roadtests 750 RS Family  Membre RS-Team 16/03/09 21:32:10
  ... 586 RickyRS1  Membre RS-Team 16/03/09 21:44:43
  New movie 536 RS Family  Membre RS-Team 20/03/09 23:08:52
  Waaaaaaoooouuuuuuuhhhhhhh !! 765 Kobalt 17/03/09 18:51:11
  Mêmes conclusions que Motorsport 617 olivierrs 17/03/09 19:08:01
  Mince alors 625 Ben38 [RS2]  Membre RS-Team 17/03/09 19:18:18
  Oui, attendons mais... 547 Kobalt 17/03/09 22:57:31
  Comme toute les renaults 568 Ben38 [RS2]  Membre RS-Team 18/03/09 06:07:20
  il n'y a pas que ca 535 Loïc  Membre RS-Team 18/03/09 09:22:46
  On est où??? 550 Bill 18/03/09 09:35:34
  allez hop celle là tu l'as gagné 507 Loïc  Membre RS-Team 18/03/09 09:38:20
  ... 536 Romain [RS2]  Membre RS-Team 18/03/09 11:43:33
  Ca c'est bon 603 clio2lrs  Membre RS-Team 17/03/09 19:36:26
  Ouais et puis aussi 566 Cédric [RS2]  Membre RS-Team 17/03/09 19:54:09
  niveau pneus 384 Romain [RS2]  Membre RS-Team 18/03/09 11:45:57
  plus 3550 € de CG 586 Loïc  Membre RS-Team 17/03/09 21:23:00
  ça y est... 632 RickyRS1  Membre RS-Team 17/03/09 20:04:17
  need !! 580 rhyllo 17/03/09 20:15:43
  Intéressant! 592 RS2ni  Membre RS-Team 17/03/09 20:17:46
  Aucun problème dans ces conditions de route, 581 Kobalt 17/03/09 22:50:59
  Ok!! 588 RS2ni  Membre RS-Team 17/03/09 23:27:36
  C'est quoi cette combine 574 Ben38 [RS2]  Membre RS-Team 18/03/09 06:09:31
  +1... 526 RickyRS1  Membre RS-Team 18/03/09 08:02:06
  1 +1 +1 = 530 RS Family  Membre RS-Team 18/03/09 08:51:11
  On en parle ce soir 552 stephanois63  Membre RS-Team 18/03/09 10:22:00
  Vous aimeriez savoir hein??? 608 RS2ni  Membre RS-Team 18/03/09 13:02:54
  dit nous quand meme pas... 549 RickyRS1  Membre RS-Team 18/03/09 13:14:38
  Tu veux aller a GG ou pas ??? 511 stephanois63  Membre RS-Team 18/03/09 16:11:55
  Réponse... 538 RS2ni  Membre RS-Team 19/03/09 13:01:53
  Avec toi 554 Ben38 [RS2]  Membre RS-Team 18/03/09 19:07:59
  je pars sur les 5 ans 537 RickyRS1  Membre RS-Team 18/03/09 19:11:45
  C'est pas un monospace 503 clio2lrs  Membre RS-Team 18/03/09 19:13:31
  ah si... 572 RickyRS1  Membre RS-Team 18/03/09 19:32:03
  Yes!!! 483 RS2ni  Membre RS-Team 19/03/09 13:03:10
  moi je sais 504 stephanois63  Membre RS-Team 19/03/09 01:37:31
  Chut!!! 519 RS2ni  Membre RS-Team 19/03/09 13:03:55
  Pas la mienne 488 stephanois63  Membre RS-Team 19/03/09 13:27:28
  bon 623 Cédric [RS2]  Membre RS-Team 17/03/09 20:47:51
  Ne t'inquiète pas 508 clio2lrs  Membre RS-Team 17/03/09 20:51:44
  Arf 594 Cédric [RS2]  Membre RS-Team 17/03/09 20:55:40
  on s'en branle 557 Loïc  Membre RS-Team 17/03/09 21:26:35
  oui 519 stephanois63  Membre RS-Team 17/03/09 21:56:36
  sur route 603 Cédric [RS2]  Membre RS-Team 17/03/09 22:27:24
  C'est certain 579 Kobalt 17/03/09 22:45:50
  1ère version moyenne ? 477 Madpierrot[RS1] 19/03/09 13:29:56
  ben 517 Cédric [RS2]  Membre RS-Team 19/03/09 13:53:05
  Ouais c'est clair ! 511 Madpierrot[RS1] 19/03/09 22:16:01
  Merci pour ton avis....Ca ne fais 610 baboonst170 17/03/09 22:00:37
  D'après eux, 626 Kobalt 17/03/09 22:53:57
  aïe aïe aïe 657 Antoine 17/03/09 22:18:52
  +10000 634 rhyllo 18/03/09 18:26:16
  moi 561 ptiR26 18/03/09 19:05:31
  Non 543 Kobalt 19/03/09 09:27:33
  Tout juste!!! 575 RS2ni  Membre RS-Team 19/03/09 13:05:01
  tu m'as l'air bien renseigné... 531 LoïcRS2  Membre RS-Team 19/03/09 14:04:10
  les essais presse sont unanimes 603 Antoine 19/03/09 20:47:54
  catalogue 592 cliofan 20/03/09 09:02:05
  Décote 572 rhyllo 20/03/09 13:51:23
  Faible décote (par rapport aux autres sportives) 621 olivierrs 20/03/09 15:09:25
  Turbo 615 rhyllo 21/03/09 19:32:51
  ... 616 RS2ni  Membre RS-Team 21/03/09 19:34:59
  Euhhh, 413 Olive[mrstrophy]  Membre RS-Team 21/03/09 19:44:55
  Y'a comme un anachronisme , non??? 600 RS2ni  Membre RS-Team 21/03/09 20:49:08
  Bah c'est simple 581 stephanois63  Membre RS-Team 21/03/09 20:57:59
  En espérant qu'elle répète 609 clio2lrs  Membre RS-Team 22/03/09 09:24:02
  déja à l'essai aujourd'hui dans direct auto sur... 690 Gerald la poste 21/03/09 21:19:29
  c'est par ici... 527 cliofan 25/03/09 16:47:52
  pas mal... 518 C3RS 25/03/09 17:48:58
  Ca me fait tjs bizar ... 465 Bretzel 26/03/09 05:46:34
  Question technique 639 Loïc  Membre RS-Team 24/03/09 14:29:09
  Tout ce que je peux te dire 671 Kobalt 24/03/09 14:34:43
  ben ouais, mais... 617 C3RS 24/03/09 19:17:02
  Mouais... 559 olivierrs 24/03/09 19:43:05
  Ford parle d'innovation concernant.... 564 Olive[mrstrophy]  Membre RS-Team 28/03/09 16:02:23
  Le principe est le même, mais... 587 Kobalt 28/03/09 16:35:07
  Expications en détails 1033 cliofan 28/03/09 20:07:34
  Explication en vidéo 587 cliofan 28/03/09 20:10:58
  Merci pour 509 RS Family  Membre RS-Team 29/03/09 00:34:19
  Merci pour 482 nicofovo 29/03/09 12:07:36
  faudra 514 Romain [RS2]  Membre RS-Team 30/03/09 14:48:17
  elle va faire mal 497 ouRS02 31/03/09 11:42:24
  d'un autre côté avec 305 ch 528 Loïc  Membre RS-Team 31/03/09 12:32:24
  Pression turbo 678 AlexV 24/03/09 15:19:14
  2 bars 500 maboul222 05/05/09 21:05:09
  B.A.R au bar... 550 stupid 05/05/09 21:07:05
  possible 549 Romain [RS2]  Membre RS-Team 06/05/09 10:53:29
  Essai sur AB Moteur 751 Bad 27/03/09 12:01:11
  C'est pas à l'échappement 582 Kobalt 27/03/09 18:32:38
  c'est comme 584 RickyRS1  Membre RS-Team 27/03/09 18:40:51
  bi-mode 580 C3RS 27/03/09 20:43:19
  10/10 576 ptiR26 28/03/09 11:15:01
  à l'échappement 589 Antoine 28/03/09 11:21:19
  ce soir dans Turbo 619 Snoop30 28/03/09 14:01:31
  C'est sûr que chez Citroën 503 Kobalt 28/03/09 14:18:40
  Bah si, la 592 xav 28/03/09 17:25:34
  comme disais Kobalt 689 Snoop30 28/03/09 19:46:59
  il a rien compris le journaleux 614 jordi  Membre RS-Team 28/03/09 19:55:12
  Pfff bidon cet essai... 581 Pascal RS2 29/03/09 12:39:18
  comme d'hab chez turbo :-) 593 Madpierrot[RS1] 29/03/09 13:31:33
  vivement que mister chachatte revienne 584 Loïc  Membre RS-Team 29/03/09 13:53:27
  Totalement d'accord! 524 captainkuru 01/04/09 12:13:10
  a quand un essai sur circuit en vidéo 406 ouRS02 01/04/09 12:54:19
  Essai vidéo Motors TV 630 cliofan 30/03/09 14:44:13
  Essai vidéo par Autodeclics 545 cliofan 31/03/09 20:47:02
  Essai vidéo circuit de Zolder ( Belgique) 613 cliofan 11/04/09 20:36:58
  C'est le reportage 467 KurtPanzR[RS2004] 12/04/09 12:01:07
  Un article dans Option Auto 641 KurtPanzR[RS2004] 31/03/09 13:12:27
  Et sinon sur le ring 496 Kique 31/03/09 21:51:13
  va falloir attendre un petit peu 610 Loïc  Membre RS-Team 31/03/09 21:57:43
  Voila j'ai craqué 668 rhyllo 31/03/09 22:52:10
  Moi ... 617 C3RS 31/03/09 23:28:02
  peux-tu 469 heresse 01/04/09 11:53:19
  En concession 604 rhyllo 01/04/09 12:56:17
  et... 578 C3RS 01/04/09 12:59:37
  combien 551 rhyllo 01/04/09 13:38:24
  il me semble que c'est 2600 le malus 437 Loïc  Membre RS-Team 01/04/09 13:22:41
  Je ne crois pas 532 rhyllo 01/04/09 13:35:14
  Oui effectivement 505 Drool1 01/04/09 13:51:18
  non. 504 C3RS 01/04/09 13:40:27
  méa culpa c'est 225g Co2 et 21 CV 459 Loïc  Membre RS-Team 01/04/09 13:46:58
  Clair que sa doit 536 Drool1 01/04/09 14:04:49
  D'autant 572 rhyllo 01/04/09 14:11:40
  Ca y est le temps est tombé !!! 587 Bill 01/04/09 14:28:36
  Sources 553 rhyllo 01/04/09 14:32:11
  C'est Bill 591 stephanois63  Membre RS-Team 01/04/09 14:50:52
  ne t'en fait pas.... 458 Bill 01/04/09 15:58:37
  oui en mangeant le mur 557 Loïc  Membre RS-Team 01/04/09 15:01:01
  Remarque la R26R...... 585 baboonst170 01/04/09 15:20:41
  oui c'est vrai 516 Loïc  Membre RS-Team 01/04/09 17:23:50
  Oui mais 525 baboonst170 01/04/09 18:32:41
  merci 494 Loïc  Membre RS-Team 01/04/09 18:34:37
  sur le forum focus st 571 jordi  Membre RS-Team 01/04/09 18:42:14
  bon ben 544 jordi  Membre RS-Team 01/04/09 20:14:46
  Ca y est je viens de comprendre 537 Kique 01/04/09 21:31:53
  Essai Moniteur 639 olivierrs 01/04/09 19:13:43
  Euh oui je pense 567 RS Family  Membre RS-Team 01/04/09 19:32:59
  Mais données constructeur en norme UE 516 olivierrs 01/04/09 19:38:32
  De toute façon.... 581 RST_Taliban 01/04/09 20:00:16
  tu portes pas ton pseudo pour rien 534 Ben38 [RS2]  Membre RS-Team 01/04/09 20:24:20
  Hi hi hi 574 RST_Taliban 01/04/09 20:33:59
  C'est toi 514 Ben38 [RS2]  Membre RS-Team 01/04/09 20:48:40
  Oui, en effet 588 RST_Taliban 01/04/09 20:53:16
  ok.... 520 Ben38 [RS2]  Membre RS-Team 01/04/09 20:56:10
  Comparo 808 rhyllo 08/04/09 19:00:14
  snif 621 ptiR26 09/04/09 17:41:16
  il est ici 634 stephanois63  Membre RS-Team 09/04/09 19:10:40
  cool 603 ptiR26 09/04/09 19:47:46
  Même comparo... 649 cliofan 09/04/09 18:02:26
  raté 474 peuf RS2 13/04/09 13:35:12
  photo du ring 681 jordi  Membre RS-Team 15/04/09 19:24:42
  On verra bien... 589 RST_Taliban 16/04/09 14:09:49
  Test 503 neo37  Membre RS-Team 16/04/09 14:31:19
  j'adore l'accent belge 571 ouRS02 16/04/09 14:58:49
  Focus RS en glisse... 799 Obi-1  Membre RS-Team 03/05/09 12:13:21
  Ring 515 stupid 03/05/09 23:05:04
  C'est bon ça mon sergio ! 620 Pedro Lito 03/05/09 23:10:58
  Et une toute neuve dans les prés, une... 884 Will38 26/05/09 18:05:22
  La pauvre 645 nicofovo 26/05/09 19:40:46
  ouvreur 567 deuxsanscinqgti 26/05/09 20:54:25
  Certes mais... 493 RS2ni  Membre RS-Team 26/05/09 21:36:28
  remonté d'info 601 lordsidney 27/05/09 10:22:11
  ou alors 530 anthonyRS3  Membre RS-Team 28/05/09 08:46:07
  ou encore 543 RS2ni  Membre RS-Team 28/05/09 13:00:57
  Fallait prendre une Mégane... 567 captainkuru 28/05/09 10:56:04
  hummm 527 Romain [RS2]  Membre RS-Team 28/05/09 11:47:55
  Nuance 518 anthonyRS3  Membre RS-Team 28/05/09 12:28:31
  Pas de news 662 Romain [RS2]  Membre RS-Team 28/05/09 11:48:34
  Bah non pas de news 559 Kique 28/05/09 23:10:06
  ah oui quand même 3 sec d'écart 587 Loïc  Membre RS-Team 28/05/09 23:31:26
  Ca explique 528 RS Family  Membre RS-Team 29/05/09 00:47:17
  Par contre sur une petite route de montagne 564 Loïc  Membre RS-Team 29/05/09 08:28:22
  C'est pas déjà fait?! 499 RS Family  Membre RS-Team 29/05/09 08:56:28
  y-a des R aussi dans les ronds points 461 Loïc  Membre RS-Team 29/05/09 11:12:11
  t'es un mytho toi 567 Romain [RS2]  Membre RS-Team 29/05/09 11:27:35
  qu'est-ce qu'il veut le malabar 579 Loïc  Membre RS-Team 29/05/09 11:31:58
  8min25? 682 jordi  Membre RS-Team 29/05/09 19:18:40
  merci 645 Obi-1  Membre RS-Team 29/05/09 19:55:19
  Mouais... 554 olivierrs 05/06/09 18:19:04
  hé hé 595 C3RS 05/06/09 18:34:53
  J'adore leurs essaies... 505 romain66.rs1Black 05/06/09 22:17:44
  Pourquoi pas, mais... 437 olivierrs 06/06/09 10:12:23
  t'as bien raison 557 Glambee 05/06/09 23:16:03
  Bien dit mon Nico 384 phil 06/06/09 09:21:14
  1 seconde et non huit 545 olivierrs 06/06/09 10:17:24
  visiblement ton conducteur 464 Glambee 06/06/09 10:46:57
  Mais... 530 olivierrs 07/06/09 18:38:28
  tout à fait 531 Loïc  Membre RS-Team 07/06/09 22:57:29
  ouais super 566 Romain [RS2]  Membre RS-Team 08/06/09 12:49:41
  Oui 549 neo37  Membre RS-Team 08/06/09 12:54:16
  Amusant... 504 olivierrs 09/06/09 19:38:30
  donc pour te rejoindre 523 Loïc  Membre RS-Team 09/06/09 21:32:06
  Focus RS 531 Romain [RS2]  Membre RS-Team 10/06/09 13:05:33
  Sans toyo, la config de base de la R 479 olivierrs 12/06/09 18:17:34
  Il n'en démord pas celui-là 501 aldo 12/06/09 23:46:53
  ah oui 482 Romain [RS2]  Membre RS-Team 13/06/09 10:34:24
  attendons de voir 668 Loïc  Membre RS-Team 30/05/09 11:45:04
  Alors là... 606 RST_Taliban 31/05/09 16:14:30
  Bien sur! 601 captainkuru 02/06/09 09:21:23
  Et si 593 KurtPanzR[RS2004] 02/06/09 14:22:00
  Golf S3 ? 604 olivierrs 06/06/09 10:19:44
  Quattro n'est qu'un mot. 519 captainkuru 10/06/09 12:18:39
  Le Taliban a parlé... 529 Nick [S2000] 07/06/09 18:52:03
  Débat sans limites 473 neo37  Membre RS-Team 07/06/09 20:56:00
  Totalement d'accord pour la FRS Mk1 496 captainkuru 10/06/09 12:29:39
  Communiqué de presse ! Chrono Silverstone ! 649 Jérome  Membre RS-Team 08/06/09 17:22:01
  ouais mais bon 555 Romain [RS2]  Membre RS-Team 08/06/09 17:46:42
  mouarf... 451 Obi-1  Membre RS-Team 08/06/09 17:50:52
  Il faut tout de même avouer que... 555 dante 09/06/09 21:52:47
  On peut rien comparer alors! 519 captainkuru 10/06/09 12:42:30
  gain de temps 401 francoisR27 11/06/09 12:51:26
  Alors là... 513 RST_Taliban 11/06/09 14:14:52
  lol j'adore 489 Drool1 11/06/09 14:27:05
  mouais 447 Romain [RS2]  Membre RS-Team 11/06/09 14:58:20
  oui mais 490 heresse 11/06/09 17:53:43
  D'accord 505 dante 11/06/09 23:07:36
  non non 433 phil 12/06/09 07:07:57
  Qu'est ce qui suit ? 691 rhyllo 10/06/09 18:23:05
  Oui, oui... 591 Obi-1  Membre RS-Team 10/06/09 18:28:44
  mais 585 Romain [RS2]  Membre RS-Team 10/06/09 18:41:09
  Vraiment 572 nicofovo 10/06/09 18:46:17
  Bien vu 560 RS Family  Membre RS-Team 10/06/09 18:54:04
  Sinon 582 rhyllo 10/06/09 19:00:08
  Je pense pas 645 RS Family  Membre RS-Team 10/06/09 19:07:45
  C3rs... 582 stupid 10/06/09 21:40:15
  Bien dit 555 RS Family  Membre RS-Team 10/06/09 22:01:59
  Au risque d'être traité encore de talib... 476 captainkuru 11/06/09 07:49:27
  Chassis 520 rhyllo 11/06/09 08:06:10
  Enfin la FRS 629 Drool1 11/06/09 12:41:53
  Impressionnant... 521 olivierrs 12/06/09 18:23:57
  Rien qu'a l"oreille 589 Drool1 11/06/09 19:23:31
  mdr 518 Romain [RS2]  Membre RS-Team 12/06/09 11:11:50
  oui les commentaires 530 Drool1 12/06/09 12:27:22
  oui puis.... 586 tOO 12/06/09 13:47:35
  j'adore cette portion ! 550 Maranello 12/06/09 16:03:39
  sacré bourre ! 528 Snoop30 12/06/09 16:36:25
  Arrêtez de rever les mecs ! 525 Baltus 12/06/09 17:03:10
  lol t'as déjà vu une focus RS avec 556 Loïc  Membre RS-Team 12/06/09 17:10:26
  Ha ha 554 stupid 12/06/09 17:13:19
  Mouais 503 papijulo 12/06/09 17:23:06
  c'est une traction 497 Romain [RS2]  Membre RS-Team 12/06/09 17:37:34
  benn 515 Romain [RS2]  Membre RS-Team 12/06/09 17:35:07
  mouuui....je m'incline ! 508 Baltus 12/06/09 18:24:26
  Et voici la réponse 661 iPod 17/06/09 12:50:48
  il a l'air ravi 534 Loïc  Membre RS-Team 17/06/09 13:00:29
  Bon on connait tous... 585 RST_Taliban 17/06/09 13:11:48
  Il ne faut pas... 417 rhyllo 17/06/09 13:36:55
  Ok donc... 527 tOO 17/06/09 13:53:54
  M'enfin... 548 RST_Taliban 17/06/09 13:55:23
  commentaire du journaliste 519 Romain [RS2]  Membre RS-Team 17/06/09 14:34:32
  Ah bon 496 tOO 17/06/09 15:06:23
  Hum...je peux extrapoler aussi 509 RST_Taliban 17/06/09 15:22:47
  oui... 475 tOO 17/06/09 17:39:19
  bah,... 501 C3RS 17/06/09 21:39:25
  Mouarf... 517 Obi-1  Membre RS-Team 17/06/09 15:37:12
  conditionnel 453 Romain [RS2]  Membre RS-Team 17/06/09 18:12:19
  Le pilote de la focus 490 jandb 17/06/09 18:26:23
  oui 541 C3RS 17/06/09 21:42:41
  donc pareille contre la Megane .... 524 Cedric224 17/06/09 15:05:01
  ba logiquement 498 Drool1 17/06/09 16:00:59
  Même 480 rhyllo 17/06/09 14:29:50
  la cup 527 Boooo 17/06/09 14:20:32
  Ca serait ... 544 rhyllo 17/06/09 14:31:00
  Oui!!! 485 neo37  Membre RS-Team 17/06/09 16:38:36
  La vache 548 phil 17/06/09 13:28:12
  Hi hi hi.... 519 RST_Taliban 17/06/09 13:30:20
  Apres avoir vu une video pareille 517 phil 17/06/09 13:31:43
  tout dépend ce que l'on recherche 502 Loïc  Membre RS-Team 17/06/09 13:34:40
  Mdr 501 neo37  Membre RS-Team 17/06/09 16:41:03
  Je vois juste une diff.... 504 Bill 17/06/09 17:17:12
  Facile... 484 Julien [Trophy] 17/06/09 17:52:28
  Bah c'est simple 468 RS Family  Membre RS-Team 17/06/09 19:05:53
  C'est vrai 501 RS Family  Membre RS-Team 17/06/09 19:09:42
  Donnons la parole à TOP GEAR : 629 olivierrs 12/06/09 18:27:03
  Pas très cohérente cette conclusion 527 Obi-1  Membre RS-Team 12/06/09 18:37:51
  Et pourquoi ? 544 olivierrs 12/06/09 18:47:02
  je suis d'accord avec toi 515 Loïc  Membre RS-Team 12/06/09 18:51:10
  et la montagne ? 506 olivierrs 12/06/09 18:56:23
  et encore 487 Loïc  Membre RS-Team 12/06/09 19:00:52
  Ah ? 489 olivierrs 12/06/09 19:24:27
  du côté de Briançon 523 Loïc  Membre RS-Team 12/06/09 19:55:33
  Parce que... 361 Obi-1  Membre RS-Team 12/06/09 23:30:41
  Et un petit comparatif avec la R26 655 olivierrs 12/06/09 18:33:27
  ben si pour toi 545 Loïc  Membre RS-Team 12/06/09 18:37:32
  Pourquoi dissocier 566 Drool1 12/06/09 18:49:47
  Décidément 536 olivierrs 12/06/09 18:54:02
  Tres differentes 513 Drool1 12/06/09 19:03:35
  Sources ? 532 olivierrs 12/06/09 19:12:49
  J'avais vu dans des essais 334 Drool1 12/06/09 20:20:33
  ?... 568 olivierrs 12/06/09 18:51:07
  En conclusion 569 Drool1 12/06/09 19:00:30
  Compléments 526 olivierrs 12/06/09 19:16:34
  C'est clair 511 Drool1 12/06/09 20:17:28
  Plus de 2 années... 756 Ferry 13/06/09 10:34:20
  ha ha 581 Romain [RS2]  Membre RS-Team 13/06/09 10:39:32
  en même temps 569 Snoop30 13/06/09 11:09:41
  Ouai mais au moins 550 Drool1 13/06/09 12:34:26
  La question est : 578 RST_Taliban 14/06/09 18:35:50
  moué bon, 566 Gmac 15/06/09 08:53:41
  Up! 657 RS Family  Membre RS-Team 19/06/09 22:00:14
  oui mais par contre 554 m362 19/06/09 22:30:41
  sur le 0-160 633 Cédric [RS2]  Membre RS-Team 20/06/09 01:09:04
  Donne moi le volant 15 mns de ta R 603 phil 20/06/09 08:10:25
  lol 551 Cédric [RS2]  Membre RS-Team 20/06/09 13:21:45
  essai 321 585 C3RS 10/07/09 15:40:38
  Ca doit etre 364 nicofovo 10/07/09 16:47:57
  Comparo Top Gear VS R26R / Auto Mobil VS 135i 699 cliofan 13/07/09 19:45:10
  + laptime by the Stig 607 aldo 13/07/09 22:20:41
  On voit bien 560 nicofovo 14/07/09 10:35:28
  n'empêche... 560 C3RS 14/07/09 13:34:03
  pas sur que les toyos fassent quelque chose 507 Loïc  Membre RS-Team 15/07/09 20:34:30
  Pilote 377 nicofovo 16/07/09 19:04:19
  Temps officiel sur le ring ... 493 Kique 05/08/09 19:17:53
  Ptdrrrrrrrrrrrr 572 phil 05/08/09 19:37:13
  C'est clair ! 526 Obi-1  Membre RS-Team 05/08/09 19:52:57
  Ah ça je savais pas 485 phil 05/08/09 20:16:02
  mais euh 481 Loïc  Membre RS-Team 05/08/09 20:34:36
  Evidement 312 phil 05/08/09 20:41:30
  ben... 508 C3RS 05/08/09 19:53:37
  Même joueur 519 stephanois63  Membre RS-Team 05/08/09 19:48:42
  j'ai pas l'impression 552 Loïc  Membre RS-Team 05/08/09 20:03:03
  t'as eu la meme impression que moi 476 jordi  Membre RS-Team 05/08/09 20:10:06
  Toi 499 stephanois63  Membre RS-Team 05/08/09 20:34:10
  et vi 514 jordi  Membre RS-Team 05/08/09 20:47:57
  c'est marrant 488 Cédric [RS2]  Membre RS-Team 05/08/09 22:39:09
  C'est surtout que le montage... 464 Ultimate Titine 07/08/09 18:16:34
  bon en même temps 534 Cédric [RS2]  Membre RS-Team 05/08/09 22:37:32
  Oui mais ! 492 aldo 05/08/09 22:40:46
  ah non pas d'accord 504 Cédric [RS2]  Membre RS-Team 05/08/09 22:42:55
  Horst Von Saurma 547 Kique 05/08/09 23:40:08
  ah ok 516 Cédric [RS2]  Membre RS-Team 06/08/09 13:10:53
  il avait testé la R26.R 505 Prophet [RS2] 07/08/09 18:51:03
  ben... 485 C3RS 07/08/09 22:34:36
  L'article en Allemand : 568 Obi-1  Membre RS-Team 06/08/09 12:24:46
  Sympa 483 nicofovo 15/08/09 17:27:09
  Reprog FOCUS RS2 692 havana_club_2b 09/08/09 15:07:36
  fiabilité 607 spat 09/08/09 15:38:28
  Autre reprog déjà dispo 619 olivierrs 14/08/09 16:42:22
  reprog 426 Cédric [RS2]  Membre RS-Team 14/08/09 16:58:32
  les anglais... 582 Greg_106xs 14/08/09 17:02:26
  volvo 308 Sebgti42 14/08/09 17:10:08
  ouais 500 cv sur une traction 572 Cédric [RS2]  Membre RS-Team 14/08/09 17:15:46
  j'ai pas dit le contraire .... 530 Greg_106xs 14/08/09 18:39:13
  moi j'ai deja la mienne, quelques photos 856 jeanlouis88240 18/09/09 17:00:35
  en blanc ! 526 Snoop30 18/09/09 17:04:08
  Y'a pas 556 nicofovo 18/09/09 20:34:24
  Elle est superbe 483 phil 18/09/09 20:49:04
  Magnifique 448 neo37  Membre RS-Team 19/09/09 22:16:37
  Société 592 dante 21/09/09 22:05:44
  Société 533 Snoop30 22/09/09 10:07:03
  échangeur 552 dante 22/09/09 21:51:02
  nouvelle voiture de la gendarmerie? 671 jordi  Membre RS-Team 24/11/09 10:36:52
  Y se font pas chier 587 Drool1 24/11/09 10:49:07
  C'est l'état qui paye 571 Loïc  Membre RS-Team 24/11/09 12:06:51
  Oui c'est nous 474 Drool1 24/11/09 12:22:48
  de toute façon 502 Loïc  Membre RS-Team 24/11/09 12:48:46
  Apparemment pour le moment 498 Alexkekedu71 24/11/09 19:16:08
  vu ce jour... 580 romain66.rs1Black 06/12/09 19:10:37
  y a pas qu'au Luc à mon avis 495 Snoop30 07/12/09 09:07:37
  photos [1-5] 713 XTCalex 07/12/09 11:21:24
  Photos [6-9] 585 XTCalex 07/12/09 11:23:08
  y a de bien belles autos par chez toi 569 Snoop30 07/12/09 11:54:01
  Pas besoin 505 XTCalex 08/12/09 11:29:30
  kikadikelétéridikul ? 497 Snoop30 08/12/09 11:52:44
  oui, t'en fait pas 553 XTCalex 09/12/09 12:45:17
  superbes photos 507 Antoine 07/12/09 19:28:08
  vivement le rodage fini 491 XTCalex 08/12/09 11:35:19
  jolies photos 583 Romain [RS2]  Membre RS-Team 07/12/09 11:58:19
  belles images 546 math_67 07/12/09 13:21:16
  Ca flash ! 499 XTCalex 08/12/09 11:32:42
  8min sur le ring!!! 685 jordi  Membre RS-Team 13/12/09 18:40:53
  voiture modifié 603 C3RS 13/12/09 18:42:56
  Temps officiel Nurburgring 675 aldo 13/12/09 18:56:34
  Est ce que l'on sait 603 RS Family  Membre RS-Team 13/12/09 19:23:24
  oui 617 jordi  Membre RS-Team 13/12/09 19:43:10
  t'a une traduction Jordi stp ? 572 Snoop30 13/12/09 19:58:14
  modifs 684 rhyllo 13/12/09 20:25:36
  quelques modifs 640 Loïc  Membre RS-Team 13/12/09 21:23:24
  Rs-r 665 rhyllo 13/12/09 22:08:36
  26 sec de mieux 538 Greg_106xs 15/12/09 08:33:07
  en fait je fais la comparaison avec une R stock 545 Loïc  Membre RS-Team 15/12/09 08:43:13
  Il me semble 537 rhyllo 15/12/09 11:24:46
  en fait je viens de voir 524 Loïc  Membre RS-Team 15/12/09 11:31:05
  Et bah 503 rhyllo 15/12/09 12:05:24
  merci pour la traduction 604 Snoop30 14/12/09 08:37:22
  rs2 646 jeanlouis88240 15/12/09 11:37:57
  en meme temps le ring 405 Jaja[RS2] 16/12/09 13:05:39
  C'est quoi son truc ? 538 Greg_106xs 16/12/09 15:18:49
  La montagne 528 rhyllo 16/12/09 18:27:16
  T'en es sur ? 545 Greg_106xs 17/12/09 13:01:27
  Pas sûr du tout que ce soit son terrain ... 538 Pedro Lito 17/12/09 13:48:24
  C'est amusant on dit 489 Drool1 17/12/09 15:08:13
  Tout à fait en ligne avec tes dires ... 512 Pedro Lito 17/12/09 15:27:12
  Le soucis c'est l'utilisation 491 Drool1 17/12/09 18:03:31
  Moi je veux une sportive 535 Greg_106xs 17/12/09 20:07:12
  Un gtt bien pimenté 295 Pedro Lito 17/12/09 20:20:12
  Oula pas besoin........ 486 Greg_106xs 18/12/09 10:08:54
  Le 1400 est une bonne base 493 Yannick31 18/12/09 11:44:21
  plus 1 532 stephanois63  Membre RS-Team 17/12/09 20:25:25


Index du forums | Index des forums | Recherche | Identification
Information
Cette discussion est verrouillée

GT2i Allopneus Addict Auto GT performance Jester Creation Allianz JMJ

© RS TEAM 2002 - 2019 - webmaster@rs-team.org